MW0YBZ Weather Reports


time (UTC)temp
F
wind
direction
speed
knots
gust
knots
rain 1hr
in
rain 24hr
in
rain mn
in
humidity
%
barometer
mb
20260507171544 54 244 0.9 3.5 0.00 0.00 0.00 69 1014.0
20260507171034 54 0 0.9 3.5 0.00 0.00 0.00 69 1014.0
20260507170535 54 236 0.9 3.5 0.00 0.00 0.00 70 1014.0
20260507170100 54 273 0.0 3.5 0.00 0.00 0.00 70 1014.1
20260507165534 54 0 0.0 3.5 0.00 0.00 0.00 70 1014.0
20260507165034 54 202 0.9 3.5 0.00 0.00 0.00 69 1014.1
20260507164600 54 240 0.9 3.5 0.00 0.00 0.00 70 1014.1
20260507164038 54 0 0.9 5.2 0.00 0.00 0.00 70 1014.1
20260507163534 54 268 0.9 5.2 0.00 0.00 0.00 71 1014.1
20260507163049 54 252 1.7 6.1 0.00 0.00 0.00 71 1014.1
20260507162535 54 230 1.7 6.1 0.00 0.00 0.00 72 1014.0
20260507162034 54 235 2.6 6.1 0.00 0.00 0.00 71 1013.9
20260507161548 53 234 0.9 4.3 0.00 0.00 0.00 71 1014.0
20260507161034 53 212 0.9 5.2 0.00 0.00 0.00 71 1014.1
20260507160537 54 284 1.7 6.1 0.00 0.00 0.00 71 1014.0
20260507160047 54 261 1.7 7.0 0.00 0.00 0.00 71 1014.0
20260507155536 54 229 2.6 7.0 0.00 0.00 0.00 71 1014.1
20260507155037 54 246 3.5 7.8 0.00 0.00 0.00 70 1014.0
20260507154554 54 234 3.5 7.8 0.00 0.00 0.00 69 1014.1
20260507154036 54 258 3.5 7.8 0.00 0.00 0.00 68 1014.0
20260507153534 54 229 2.6 7.8 0.00 0.00 0.00 68 1013.9
20260507153050 54 248 2.6 9.6 0.00 0.00 0.00 68 1014.0
20260507152534 54 195 3.5 9.6 0.00 0.00 0.00 66 1014.0
20260507152035 55 236 3.5 7.0 0.00 0.00 0.00 66 1014.1
20260507151550 55 201 3.5 8.7 0.00 0.00 0.00 64 1014.0
20260507151035 55 245 4.3 8.7 0.00 0.00 0.00 63 1014.0
20260507150535 55 182 3.5 7.8 0.00 0.00 0.00 64 1014.0
20260507150048 55 257 4.3 8.7 0.00 0.00 0.00 64 1014.0
20260507145534 55 178 2.6 8.7 0.00 0.00 0.00 66 1014.0
20260507145036 56 229 2.6 10.4 0.00 0.00 0.00 66 1013.9
20260507144549 55 240 4.3 10.4 0.00 0.00 0.00 65 1014.0
20260507144035 56 210 4.3 10.4 0.00 0.00 0.00 64 1014.1
20260507143535 56 197 3.5 7.8 0.00 0.00 0.00 64 1014.1
20260507143057 56 151 3.5 8.7 0.00 0.00 0.00 63 1014.1
20260507142535 56 148 1.7 9.6 0.00 0.00 0.00 65 1014.2
20260507142035 56 168 2.6 9.6 0.00 0.00 0.00 64 1014.3
20260507141554 56 153 3.5 8.7 0.00 0.00 0.00 64 1014.2
20260507141035 56 252 3.5 8.7 0.00 0.00 0.00 66 1014.4
20260507140535 56 137 4.3 8.7 0.00 0.00 0.00 65 1014.3
20260507140046 56 150 2.6 7.8 0.00 0.00 0.00 65 1014.2
20260507135534 56 94 3.5 7.8 0.00 0.00 0.00 64 1014.3
20260507135034 56 223 3.5 9.6 0.00 0.00 0.00 65 1014.2
20260507134554 57 117 4.3 9.6 0.00 0.00 0.00 63 1014.3
20260507134035 56 146 4.3 11.3 0.00 0.00 0.00 63 1014.3
20260507133534 56 203 4.3 11.3 0.00 0.00 0.00 63 1014.3
20260507133102 56 187 1.7 8.7 0.00 0.00 0.00 64 1014.2
20260507132536 56 230 3.5 11.3 0.00 0.00 0.00 63 1014.3
20260507132034 56 144 5.2 11.3 0.00 0.00 0.00 62 1014.3
20260507131553 56 215 3.5 9.6 0.00 0.00 0.00 65 1014.3
20260507131036 56 145 3.5 9.6 0.00 0.00 0.00 65 1014.3
20260507130535 56 209 3.5 8.7 0.00 0.00 0.00 64 1014.3
20260507130106 56 182 4.3 9.6 0.00 0.00 0.00 64 1014.4
20260507125535 56 223 3.5 9.6 0.00 0.00 0.00 63 1014.4
20260507125036 56 247 3.5 8.7 0.00 0.00 0.00 64 1014.4
20260507124548 56 194 3.5 8.7 0.00 0.00 0.00 64 1014.4
20260507124037 56 188 2.6 7.8 0.00 0.00 0.00 65 1014.4
20260507123534 56 275 2.6 8.7 0.00 0.00 0.00 64 1014.6
20260507123051 56 251 3.5 8.7 0.00 0.00 0.00 64 1014.6
20260507122534 56 217 2.6 11.3 0.00 0.00 0.00 64 1014.5
20260507122035 56 210 4.3 11.3 0.00 0.00 0.00 64 1014.5
20260507121604 56 151 4.3 11.3 0.00 0.00 0.00 66 1014.5
20260507121039 56 134 3.5 10.4 0.00 0.00 0.00 66 1014.6
20260507120535 56 119 4.3 10.4 0.00 0.00 0.00 66 1014.5
20260507120059 56 108 3.5 10.4 0.00 0.00 0.00 67 1014.5
20260507115534 56 182 2.6 10.4 0.00 0.00 0.00 67 1014.5
20260507115037 55 223 3.5 8.7 0.00 0.00 0.00 67 1014.5
20260507114627 55 187 3.5 8.7 0.00 0.00 0.00 67 1014.7
20260507114035 55 213 2.6 8.7 0.00 0.00 0.00 65 1014.6
20260507113533 56 216 4.3 9.6 0.00 0.00 0.00 65 1014.7
20260507113043 56 211 4.3 9.6 0.00 0.00 0.00 65 1014.7
20260507112535 56 178 2.6 8.7 0.00 0.00 0.00 69 1014.8
20260507112040 56 184 1.7 8.7 0.00 0.00 0.00 67 1014.7
20260507111547 56 92 2.6 8.7 0.00 0.00 0.00 69 1014.9
20260507111034 55 181 3.5 8.7 0.00 0.00 0.00 67 1014.9
20260507110535 56 205 3.5 9.6 0.00 0.00 0.00 68 1014.9
20260507110042 55 151 4.3 9.6 0.00 0.00 0.00 69 1014.8
20260507105535 55 207 2.6 9.6 0.00 0.00 0.00 69 1015.1
20260507105037 56 186 4.3 9.6 0.00 0.00 0.00 69 1015.0
20260507104543 55 150 4.3 9.6 0.00 0.00 0.00 70 1015.1
20260507104035 55 186 4.3 9.6 0.00 0.00 0.00 69 1015.0
20260507103536 55 202 5.2 9.6 0.00 0.00 0.00 70 1015.0
20260507103047 55 199 3.5 13.0 0.00 0.00 0.00 69 1014.9
20260507102535 55 164 5.2 13.0 0.00 0.00 0.00 70 1014.9
20260507102038 55 211 4.3 9.6 0.00 0.00 0.00 68 1014.9
20260507101546 55 141 5.2 10.4 0.00 0.00 0.00 68 1015.0
20260507101034 55 157 3.5 10.4 0.00 0.00 0.00 69 1015.1
20260507100534 55 111 2.6 9.6 0.00 0.00 0.00 70 1015.0
20260507100048 54 136 3.5 9.6 0.00 0.00 0.00 70 1015.0
20260507095535 54 134 2.6 7.8 0.00 0.00 0.00 71 1014.9
20260507095034 53 174 3.5 9.6 0.00 0.00 0.00 71 1015.2
20260507094542 53 156 4.3 9.6 0.00 0.00 0.00 71 1015.1
20260507094034 54 168 4.3 9.6 0.00 0.00 0.00 71 1014.8
20260507093534 53 143 3.5 9.6 0.00 0.00 0.00 74 1014.7
20260507093049 53 108 4.3 10.4 0.00 0.00 0.00 75 1014.9
20260507092534 53 148 4.3 10.4 0.00 0.00 0.00 75 1014.9
20260507092034 53 86 4.3 8.7 0.00 0.00 0.00 75 1014.6
20260507091547 52 131 3.5 7.8 0.00 0.00 0.00 75 1014.7
20260507091035 52 171 3.5 7.8 0.00 0.00 0.00 76 1014.8
20260507090538 52 165 1.7 7.0 0.00 0.00 0.00 77 1014.7
20260507090042 52 187 3.5 7.0 0.00 0.00 0.00 76 1014.8
20260507085536 52 99 1.7 7.8 0.00 0.00 0.00 77 1014.7
20260507085035 51 227 2.6 7.8 0.00 0.00 0.00 78 1014.8
20260507084557 51 40 1.7 6.1 0.00 0.00 0.00 80 1014.9
20260507084034 50 140 1.7 6.1 0.00 0.00 0.00 80 1014.9
20260507083535 49 42 1.7 7.0 0.00 0.00 0.00 81 1014.9
20260507083044 49 106 2.6 7.0 0.00 0.00 0.00 81 1014.9
20260507082536 48 111 1.7 7.0 0.00 0.00 0.00 82 1015.0
20260507082037 48 119 3.5 7.0 0.00 0.00 0.00 81 1015.0
20260507081543 48 117 2.6 7.8 0.00 0.00 0.00 81 1015.0
20260507081039 48 113 3.5 7.8 0.00 0.00 0.00 82 1014.8
20260507080536 48 87 1.7 7.0 0.00 0.00 0.00 82 1014.9
20260507080045 47 115 2.6 7.0 0.00 0.00 0.00 82 1014.8
20260507075534 47 113 1.7 6.1 0.00 0.00 0.00 83 1014.8
20260507075035 47 112 2.6 8.7 0.00 0.00 0.00 83 1014.9
20260507074545 46 114 1.7 8.7 0.00 0.00 0.00 83 1014.7
20260507074034 46 119 2.6 8.7 0.00 0.00 0.00 83 1014.7
20260507073534 46 89 2.6 7.8 0.00 0.00 0.00 84 1014.7
20260507073051 46 108 2.6 7.8 0.00 0.00 0.00 83 1014.8
20260507072535 46 126 2.6 7.0 0.00 0.00 0.00 83 1014.8
20260507072038 46 69 3.5 7.8 0.00 0.00 0.00 83 1014.8
20260507071546 46 109 3.5 7.8 0.00 0.00 0.00 83 1014.8
20260507071043 46 121 1.7 7.8 0.00 0.00 0.00 83 1014.7
20260507070534 46 111 3.5 7.8 0.00 0.00 0.00 83 1014.8
20260507070042 46 90 2.6 7.0 0.00 0.00 0.00 83 1014.7
20260507065538 45 136 2.6 7.0 0.00 0.00 0.00 83 1014.6
20260507065034 45 130 2.6 6.1 0.00 0.00 0.00 83 1014.6
20260507064542 45 134 3.5 6.1 0.00 0.00 0.00 83 1014.5
20260507064035 45 117 1.7 4.3 0.00 0.00 0.00 83 1014.6
20260507063534 45 120 0.9 3.5 0.00 0.00 0.00 83 1014.6
20260507063042 45 127 0.9 3.5 0.00 0.00 0.00 83 1014.5
20260507062534 45 119 0.9 3.5 0.00 0.00 0.00 83 1014.5
20260507062033 45 136 1.7 5.2 0.00 0.00 0.00 83 1014.4
20260507061546 45 102 1.7 5.2 0.00 0.00 0.00 83 1014.4
20260507061034 45 107 1.7 5.2 0.00 0.00 0.00 83 1014.3
20260507060535 45 136 1.7 3.5 0.00 0.00 0.00 83 1014.3
20260507060044 45 119 1.7 5.2 0.00 0.00 0.00 83 1014.3
20260507055535 45 121 1.7 5.2 0.00 0.00 0.00 83 1014.3
20260507055034 45 116 1.7 3.5 0.00 0.00 0.00 83 1014.4
20260507054542 45 117 0.9 2.6 0.00 0.00 0.00 83 1014.3
20260507054035 45 0 0.0 5.2 0.00 0.00 0.00 83 1014.2
20260507053535 45 0 0.0 5.2 0.00 0.00 0.00 83 1014.2
20260507053042 45 113 1.7 5.2 0.00 0.00 0.00 83 1014.2
20260507052534 45 126 0.9 4.3 0.00 0.00 0.00 83 1014.2
20260507052034 45 24 1.7 3.5 0.00 0.00 0.00 83 1014.2
20260507051542 45 51 0.9 5.2 0.00 0.00 0.00 82 1014.1
20260507051035 45 78 0.9 6.1 0.00 0.00 0.00 82 1014.2
20260507050535 45 103 2.6 6.1 0.00 0.00 0.00 82 1014.3
20260507050053 45 72 0.9 2.6 0.00 0.00 0.00 83 1014.3
20260507045534 45 0 0.9 5.2 0.00 0.00 0.00 82 1014.3
20260507045034 45 115 1.7 5.2 0.00 0.00 0.00 82 1014.2
20260507044545 45 148 0.9 3.5 0.00 0.00 0.00 82 1014.2
20260507044035 45 114 0.9 3.5 0.00 0.00 0.00 82 1014.1
20260507043535 45 110 0.9 5.2 0.00 0.00 0.00 82 1014.2
20260507043046 45 139 1.7 5.2 0.00 0.00 0.00 82 1014.2
20260507042537 45 120 1.7 5.2 0.00 0.00 0.00 82 1014.2
20260507042034 45 113 1.7 3.5 0.00 0.00 0.00 82 1014.2
20260507041542 45 122 1.7 5.2 0.00 0.00 0.00 82 1014.2
20260507041035 45 68 0.9 5.2 0.00 0.00 0.00 82 1014.2
20260507040536 45 109 0.9 4.3 0.00 0.00 0.00 81 1014.2
20260507040056 45 109 1.7 4.3 0.00 0.00 0.00 81 1014.2
20260507035535 45 109 0.9 2.6 0.00 0.00 0.00 81 1014.0
20260507035035 45 111 0.0 5.2 0.00 0.00 0.00 81 1014.1
20260507034554 45 110 0.9 6.1 0.00 0.00 0.00 81 1014.1
20260507034035 45 122 1.7 6.1 0.00 0.00 0.00 81 1014.0
20260507033535 46 101 1.7 3.5 0.00 0.00 0.00 81 1014.1
20260507033050 46 105 0.9 4.3 0.00 0.00 0.00 81 1014.0
20260507032535 46 78 1.7 4.3 0.00 0.00 0.00 81 1014.0
20260507032038 46 82 0.9 3.5 0.00 0.00 0.00 81 1014.1
20260507031549 46 60 0.9 3.5 0.00 0.00 0.00 80 1014.1
20260507031038 46 76 0.9 3.5 0.00 0.00 0.00 80 1014.2
20260507030536 46 80 0.9 5.2 0.00 0.00 0.00 80 1014.1
20260507030048 46 70 1.7 5.2 0.00 0.00 0.00 80 1014.2
20260507025535 46 84 0.9 7.0 0.00 0.00 0.00 80 1014.3
20260507025035 46 113 0.9 7.0 0.00 0.00 0.00 79 1014.2
20260507024556 46 113 1.7 5.2 0.00 0.00 0.00 79 1014.2
20260507024037 46 109 1.7 5.2 0.00 0.00 0.00 79 1014.1
20260507023539 46 101 0.9 3.5 0.00 0.00 0.00 79 1014.2
20260507023048 46 116 0.9 5.2 0.00 0.00 0.00 79 1014.2
20260507022538 46 109 0.9 5.2 0.00 0.00 0.00 78 1014.1
20260507022036 46 94 1.7 7.0 0.00 0.00 0.00 78 1014.2
20260507021546 46 109 2.6 7.0 0.00 0.00 0.00 78 1014.2
20260507021039 46 93 0.9 6.1 0.00 0.00 0.00 78 1014.2
20260507020534 46 96 1.7 4.3 0.00 0.00 0.00 78 1014.2
20260507020105 46 63 0.9 3.5 0.00 0.00 0.00 78 1014.2
20260507015533 46 49 0.9 5.2 0.00 0.00 0.00 77 1014.2
20260507015035 46 81 0.9 5.2 0.00 0.00 0.00 77 1014.2
20260507014541 46 116 0.9 6.1 0.00 0.00 0.00 77 1014.2
20260507014035 46 96 1.7 6.1 0.00 0.00 0.00 77 1014.2
20260507013537 46 0 1.7 6.1 0.00 0.00 0.00 77 1014.2
20260507013053 46 96 0.9 4.3 0.00 0.00 0.00 76 1014.1
20260507012535 47 80 1.7 6.1 0.00 0.00 0.00 76 1014.2
20260507012035 47 59 1.7 6.1 0.00 0.00 0.00 76 1014.2
20260507011545 47 126 0.9 5.2 0.00 0.00 0.00 76 1014.2
20260507011036 47 114 0.9 5.2 0.00 0.00 0.00 76 1014.3
20260507010535 47 79 0.9 5.2 0.00 0.00 0.00 75 1014.3
20260507010048 47 56 0.9 7.0 0.00 0.00 0.00 75 1014.4
20260507005537 47 85 1.7 7.0 0.00 0.00 0.00 75 1014.4
20260507005039 47 107 1.7 6.1 0.00 0.00 0.00 75 1014.4
20260507004602 47 90 1.7 5.2 0.00 0.00 0.00 74 1014.3
20260507004033 47 113 1.7 7.0 0.00 0.00 0.00 74 1014.3
20260507003536 47 107 0.9 7.0 0.00 0.00 0.00 74 1014.3
20260507003054 47 90 1.7 7.0 0.00 0.00 0.00 73 1014.3
20260507002535 47 117 1.7 5.2 0.00 0.00 0.00 73 1014.2
20260507002035 47 97 0.9 6.1 0.00 0.00 0.00 73 1014.3
20260507001547 47 159 1.7 6.1 0.00 0.00 0.00 72 1014.4
20260507001035 48 104 1.7 6.1 0.00 0.00 0.00 72 1014.3
20260507000536 48 123 1.7 3.5 0.00 0.00 0.00 72 1014.4
20260507000047 48 72 0.9 3.5 0.00 0.00 0.00 71 1014.4
20260506235535 48 68 0.9 6.1 0.00 0.00 0.00 71 1014.4
20260506235037 48 77 1.7 6.1 0.00 0.00 0.00 70 1014.3
20260506234549 48 66 1.7 7.0 0.00 0.00 0.00 70 1014.4
20260506234034 48 98 1.7 7.8 0.00 0.00 0.00 70 1014.3
20260506233536 48 82 1.7 7.8 0.00 0.00 0.00 69 1014.3
20260506233103 48 109 1.7 7.8 0.00 0.00 0.00 69 1014.3
20260506232533 48 53 2.6 7.8 0.00 0.00 0.00 68 1014.3
20260506232035 48 93 0.9 7.0 0.00 0.00 0.00 68 1014.2
20260506231554 48 97 1.7 7.0 0.00 0.00 0.00 67 1014.2
20260506231034 49 96 1.7 5.2 0.00 0.00 0.00 67 1014.3
20260506230534 49 0 0.9 6.1 0.00 0.00 0.00 66 1014.2
20260506230054 49 54 1.7 6.1 0.00 0.00 0.00 66 1014.2
20260506225535 49 127 0.9 6.1 0.00 0.00 0.00 66 1014.3
20260506225035 49 70 0.9 5.2 0.00 0.00 0.00 65 1014.2
20260506224544 49 69 1.7 5.2 0.00 0.00 0.00 65 1014.1
20260506224036 49 118 0.9 2.6 0.00 0.00 0.00 65 1014.1
20260506223534 49 91 0.0 4.3 0.00 0.00 0.00 65 1014.1
20260506223047 49 0 0.9 4.3 0.00 0.00 0.00 64 1014.1
20260506222536 49 121 0.9 3.5 0.00 0.00 0.00 64 1014.0
20260506222034 49 61 0.9 3.5 0.00 0.00 0.00 64 1014.0
20260506221542 49 109 0.0 3.5 0.00 0.00 0.00 64 1014.0
20260506221035 50 58 0.0 3.5 0.00 0.00 0.00 65 1014.0
20260506220533 50 76 0.9 3.5 0.00 0.00 0.00 65 1013.9
20260506220042 50 0 0.0 2.6 0.00 0.00 0.00 65 1014.0
20260506215535 50 0 0.0 3.5 0.00 0.00 0.00 65 1014.0
20260506215036 50 73 0.9 3.5 0.00 0.00 0.00 64 1014.0
20260506214549 50 78 0.0 5.2 0.00 0.00 0.00 63 1013.9
20260506214036 50 106 1.7 5.2 0.00 0.00 0.00 63 1013.9
20260506213532 50 105 0.9 2.6 0.00 0.00 0.00 64 1014.0
20260506213103 50 93 0.9 2.6 0.00 0.00 0.00 64 1014.0
20260506212536 50 70 0.0 1.7 0.00 0.00 0.00 65 1013.9
20260506212034 50 0 0.0 0.9 0.00 0.00 0.00 66 1013.9
20260506211546 50 0 0.0 0.9 0.00 0.00 0.00 66 1013.9
20260506211035 50 0 0.0 1.7 0.00 0.00 0.00 66 1013.9
20260506210534 51 0 0.0 2.6 0.00 0.00 0.00 66 1013.9
20260506210049 51 67 0.0 2.6 0.00 0.00 0.00 65 1014.0
20260506205533 51 0 0.0 2.6 0.00 0.00 0.00 64 1013.9
20260506205035 51 86 0.0 2.6 0.00 0.00 0.00 64 1013.8
20260506204547 51 0 0.0 2.6 0.00 0.00 0.00 63 1013.9
20260506204033 51 88 0.0 2.6 0.00 0.00 0.00 62 1013.9
20260506203535 51 98 0.0 2.6 0.00 0.00 0.00 62 1013.9
20260506203046 51 0 0.0 1.7 0.00 0.00 0.00 62 1013.9
20260506202539 51 46 0.0 1.7 0.00 0.00 0.00 62 1013.8
20260506202035 51 10 0.0 1.7 0.00 0.00 0.00 62 1013.8
20260506201546 51 0 0.0 1.7 0.00 0.00 0.00 61 1013.8
20260506201038 51 0 0.0 1.7 0.00 0.00 0.00 61 1013.7
20260506200534 52 0 0.0 1.7 0.00 0.00 0.00 62 1013.7
20260506200044 52 22 0.0 1.7 0.00 0.00 0.00 62 1013.7
20260506195533 52 0 0.0 1.7 0.00 0.00 0.00 61 1013.7
20260506195037 52 0 0.0 1.7 0.00 0.00 0.00 61 1013.8
20260506194549 52 0 0.0 1.7 0.00 0.00 0.00 60 1013.6
20260506194035 52 0 0.0 1.7 0.00 0.00 0.00 60 1013.5
20260506193538 52 0 0.0 0.9 0.00 0.00 0.00 60 1013.6
20260506193046 52 0 0.0 1.7 0.00 0.00 0.00 58 1013.5
20260506192535 52 0 0.0 1.7 0.00 0.00 0.00 58 1013.4
20260506192034 53 0 0.0 1.7 0.00 0.00 0.00 58 1013.5
20260506191547 53 5 0.0 1.7 0.00 0.00 0.00 58 1013.6
20260506191035 53 0 0.0 1.7 0.00 0.00 0.00 57 1013.6
20260506190536 53 0 0.0 0.9 0.00 0.00 0.00 57 1013.6
20260506190046 53 0 0.0 1.7 0.00 0.00 0.00 57 1013.5
20260506185534 53 0 0.0 1.7 0.00 0.00 0.00 57 1013.4
20260506185034 53 10 0.0 1.7 0.00 0.00 0.00 57 1013.4
20260506184554 53 14 0.0 1.7 0.00 0.00 0.00 57 1013.4
20260506184036 53 0 0.0 1.7 0.00 0.00 0.00 58 1013.3
20260506183536 53 12 0.0 1.7 0.00 0.00 0.00 57 1013.3
20260506183053 53 5 0.0 1.7 0.00 0.00 0.00 58 1013.3
20260506182533 53 10 0.0 1.7 0.00 0.00 0.00 58 1013.2
20260506182034 54 0 0.0 2.6 0.00 0.00 0.00 57 1013.3
20260506181609 54 352 0.9 2.6 0.00 0.00 0.00 57 1013.2
20260506181034 54 18 0.0 2.6 0.00 0.00 0.00 58 1013.2
20260506180534 54 0 0.0 2.6 0.00 0.00 0.00 57 1013.1
20260506180047 54 0 0.0 3.5 0.00 0.00 0.00 57 1013.1
20260506175536 54 0 0.0 3.5 0.00 0.00 0.00 57 1013.1
20260506175037 54 31 0.9 3.5 0.00 0.00 0.00 56 1013.1
20260506174544 54 20 0.0 3.5 0.00 0.00 0.00 56 1013.0
20260506174035 54 0 0.0 3.5 0.00 0.00 0.00 56 1013.0
20260506173535 55 0 0.9 3.5 0.00 0.00 0.00 55 1013.1
20260506173058 55 59 0.0 3.5 0.00 0.00 0.00 55 1013.1
20260506172533 55 297 0.0 2.6 0.00 0.00 0.00 54 1013.1
20260506172035 55 337 0.0 3.5 0.00 0.00 0.00 55 1012.9